EW0349 Weather Reports


time (UTC)temp
F
wind
direction
speed
knots
gust
knots
rain 1hr
in
rain 24hr
in
rain mn
in
humidity
%
barometer
mb
20260901080015 56 238 0.0 0.9 0.00 0.00 0.00 30 1010.6
20260901074513 57 238 0.0 0.9 0.00 0.00 0.00 32 1010.7
20260901073011 57 238 0.0 2.6 0.00 0.00 0.00 34 1010.5
20260901071510 57 238 0.0 1.7 0.00 0.00 0.00 37 1010.4
20260901070009 57 233 0.0 1.7 0.00 0.00 0.00 38 1010.4
20260901064502 58 225 0.9 2.6 0.00 0.00 0.00 41 1010.3
20260901063058 58 278 0.0 3.5 0.00 0.00 0.00 43 1010.1
20260901061600 58 282 0.9 6.1 0.00 0.00 0.00 45 1009.9
20260901060049 59 215 1.7 7.0 0.00 0.00 0.00 46 1010.0
20260901054545 59 227 0.9 9.6 0.00 0.00 0.00 48 1009.9
20260901053042 59 250 1.7 5.2 0.00 0.00 0.00 51 1009.6
20260901051540 60 248 0.9 2.6 0.00 0.00 0.00 52 1009.6
20260901050032 60 203 0.9 3.5 0.00 0.00 0.00 54 1009.4
20260901044529 61 261 0.0 0.9 0.00 0.00 0.00 58 1009.2
20260901043027 62 261 0.0 1.7 0.00 0.00 0.00 60 1009.1
20260901041519 63 218 0.9 3.5 0.00 0.00 0.00 62 1008.7
20260901040015 64 200 0.9 6.1 0.00 0.00 0.00 63 1008.5
20260901034510 65 198 2.6 6.1 0.00 0.00 0.00 63 1008.2
20260901033008 67 198 0.9 7.0 0.00 0.00 0.00 62 1008.0
20260901031501 69 269 0.0 7.0 0.00 0.00 0.00 60 1007.8
20260901030057 70 320 0.9 2.6 0.00 0.00 0.00 56 1007.6
20260901024552 71 298 0.0 4.3 0.00 0.00 0.00 54 1007.5
20260901023054 73 275 0.9 3.5 0.00 0.00 0.00 53 1007.3
20260901021544 75 284 0.9 6.1 0.00 0.00 0.00 50 1007.2
20260901020039 77 288 1.7 4.3 0.00 0.00 0.00 48 1007.0
20260901014535 79 279 3.5 8.7 0.00 0.00 0.00 45 1007.0
20260901013039 82 300 0.9 4.3 0.00 0.00 0.00 42 1006.7
20260901011526 82 273 0.0 2.6 0.00 0.00 0.00 40 1006.7
20260901010029 83 229 0.9 3.5 0.00 0.00 0.00 40 1006.8
20260901004520 83 261 0.0 6.1 0.00 0.00 0.00 38 1006.9
20260901003014 82 281 0.0 1.7 0.00 0.00 0.00 40 1006.8
20260901001512 82 281 0.0 1.7 0.00 0.00 0.00 37 1006.9
20260901000008 81 275 0.0 4.3 0.00 0.00 0.00 36 1006.9
20260831234601 82 303 0.0 2.6 0.00 0.00 0.00 37 1007.1
20260831233056 82 65 0.0 1.7 0.00 0.00 0.00 37 1007.1
20260831231554 82 289 0.0 3.5 0.00 0.00 0.00 38 1007.1
20260831230051 81 274 0.9 2.6 0.00 0.00 0.00 37 1007.3
20260831224542 82 225 0.9 2.6 0.00 0.00 0.00 35 1007.6
20260831223038 83 313 0.0 4.3 0.00 0.00 0.00 36 1007.5
20260831221541 82 295 0.0 4.3 0.00 0.00 0.00 36 1007.6
20260831220029 81 79 0.0 3.5 0.00 0.00 0.00 41 1007.7
20260831214524 81 290 0.0 1.7 0.00 0.00 0.00 42 1007.9
20260831213023 80 331 0.0 2.6 0.00 0.00 0.00 43 1008.1
20260831211516 78 282 0.9 3.5 0.00 0.00 0.00 44 1008.2
20260831210011 77 186 0.9 3.5 0.00 0.00 0.00 46 1008.3
20260831204508 76 32 0.9 2.6 0.00 0.00 0.00 47 1008.5
20260831203003 75 51 0.9 2.6 0.00 0.00 0.00 48 1008.7
20260831201602 74 279 0.0 3.5 0.00 0.00 0.00 49 1009.0
20260831200054 74 345 0.0 3.5 0.00 0.00 0.00 50 1009.1
20260831194555 72 337 0.9 3.5 0.00 0.00 0.00 50 1009.4
20260831193046 71 98 0.0 2.6 0.00 0.00 0.00 53 1009.6
20260831191550 70 35 0.0 2.6 0.00 0.00 0.00 54 1009.8
20260831190036 69 229 1.7 3.5 0.00 0.00 0.00 54 1010.0
20260831184532 68 113 0.0 3.5 0.00 0.00 0.00 56 1010.1
20260831183028 67 344 0.0 2.6 0.00 0.00 0.00 56 1010.3
20260831181523 66 283 0.0 2.6 0.00 0.00 0.00 56 1010.3
20260831180018 66 34 0.9 2.6 0.00 0.00 0.00 55 1010.4
20260831174515 65 85 0.0 1.7 0.00 0.00 0.00 55 1010.5
20260831173014 63 44 0.0 2.6 0.00 0.00 0.00 55 1010.7
20260831171511 62 13 0.0 2.6 0.00 0.00 0.00 53 1010.9
20260831170001 61 46 0.0 2.6 0.00 0.00 0.00 50 1010.9
20260831164608 60 27 1.7 3.5 0.00 0.00 0.00 46 1011.1
20260831163056 58 30 0.0 3.5 0.00 0.00 0.00 37 1011.3
20260831161547 58 30 0.9 2.6 0.00 0.00 0.00 29 1011.4
20260831160047 57 30 0.0 2.6 0.00 0.00 0.00 13 1011.4
20260831154539 55 27 0.0 2.6 0.00 0.00 0.00 100 1011.4
20260831153042 54 11 0.0 1.7 0.00 0.00 0.00 100 1011.4
20260831151530 52 11 0.0 2.6 0.00 0.00 0.00 100 1011.6
20260831150033 51 18 0.0 0.9 0.00 0.00 0.00 100 1011.4
20260831144521 50 18 0.0 0.0 0.00 0.00 0.00 100 1011.6
20260831143017 49 18 0.0 0.0 0.00 0.00 0.00 100 1011.5
20260831141512 49 18 0.0 0.0 0.00 0.00 0.00 100 1011.4
20260831140012 49 18 0.0 0.9 0.00 0.00 0.00 100 1011.5
20260831134504 49 18 0.0 0.0 0.00 0.00 0.00 100 1011.5
20260831133100 49 18 0.0 0.0 0.00 0.00 0.00 100 1011.5
20260831131555 50 18 0.0 0.0 0.00 0.00 0.00 100 1011.6
20260831130051 50 18 0.0 0.9 0.00 0.00 0.00 5 1011.7
20260831124558 50 18 0.0 0.0 0.00 0.00 0.00 7 1011.8
20260831123144 51 18 0.0 0.0 0.00 0.00 0.00 7 1011.8
20260831121537 52 18 0.0 0.0 0.00 0.00 0.00 7 1011.9
20260831120041 52 18 0.0 0.0 0.00 0.00 0.00 8 1011.9
20260831114538 52 18 0.0 0.0 0.00 0.00 0.00 10 1012.0
20260831113026 52 18 0.0 0.0 0.00 0.00 0.00 13 1012.1
20260831111522 53 18 0.0 0.0 0.00 0.00 0.00 13 1012.1
20260831110021 53 18 0.0 0.0 0.00 0.00 0.00 16 1012.2
20260831104529 53 18 0.0 0.0 0.00 0.00 0.00 16 1012.2
20260831103021 53 18 0.0 0.0 0.00 0.00 0.00 18 1012.2
20260831101515 54 18 0.0 0.0 0.00 0.00 0.00 25 1012.3
20260831100012 54 18 0.0 0.0 0.00 0.00 0.00 24 1012.5
20260831094510 54 18 0.0 0.0 0.00 0.00 0.00 30 1012.6
20260831093006 55 18 0.0 0.0 0.00 0.00 0.00 33 1012.7
20260831091505 55 18 0.0 0.0 0.00 0.00 0.00 37 1012.8
20260831090106 56 18 0.0 0.0 0.00 0.00 0.00 39 1013.1
20260831084559 56 18 0.0 0.9 0.00 0.00 0.00 39 1013.2
20260831083103 56 18 0.0 0.0 0.00 0.00 0.00 41 1013.3
20260831081601 56 18 0.0 0.0 0.00 0.00 0.00 45 1013.3